[[{"header":{"parameterUnit":"m.s-1","parameterCategory":1,"la1":30.2991,"la2":30.254,"lo1":-89.0895,"lo2":-89.0444,"dy":0.0017,"dx":0.0017,"nx":28,"ny":28,"refTime":"2024-06-07T03:00:00:Z","depth":0,"parameterNumber":2,"parameterNumberName":"U-component_of_WINDS"},"data":[0,0,0,0,0,0,0,0,0,0,0,0,0,0,0,0,0,0,0,0,0,0,0,0,0,0,0,0,0,0,0,0,0,0,0,0,0,0,0,0,0,0,0,0,0,0,0,0,0,0,0,0,0,0,0,0,0,0,-0.507,-0.5068,0,-0.4949,-0.4948,-0.4946,-0.4886,-0.4886,-0.4886,-0.4886,-0.476,-0.4757,-0.4754,0,0,0,0,0,0,0,0,0,0,0,0,0,-0.5248,-0.5245,-0.507,-0.5068,-0.5067,-0.4949,-0.4948,-0.4946,-0.4886,-0.4886,-0.4886,-0.4886,-0.4761,-0.4757,-0.4753,0,0,0,0,0,0,0,0,0,0,0,0,0,-0.5153,-0.5244,-0.507,-0.5023,-0.5017,-0.495,-0.4947,-0.4945,-0.4886,-0.4886,-0.4886,-0.4886,-0.4763,-0.4758,-0.4753,-0.4723,0,0,-0.4738,-0.4736,0,0,0,0,0,0,0,0,-0.5159,-0.5147,-0.5031,-0.5026,-0.5019,-0.4932,-0.4964,-0.4871,-0.4886,-0.4936,-0.4886,-0.4886,-0.4817,-0.4808,-0.4785,-0.4717,-0.4712,-0.4737,-0.4734,-0.4732,-0.4731,0,0,0,0,0,0,0,-0.5165,-0.5151,-0.5022,-0.5029,-0.5022,-0.5007,-0.4994,-0.4946,-0.4878,-0.4931,-0.4927,-0.4913,-0.4814,-0.479,-0.4782,-0.471,-0.4737,-0.4733,-0.473,-0.4728,-0.4611,-0.4611,0,0,0,0,0,0,-0.518,-0.5157,-0.5026,-0.5018,-0.509,-0.5004,-0.4989,-0.496,-0.4878,-0.4866,-0.4913,-0.4911,-0.4799,-0.4788,-0.4777,-0.4737,-0.4732,-0.4727,-0.4725,-0.4612,-0.4611,-0.4611,0,0,0,0,0,0,-0.5184,-0.5168,-0.5031,-0.5086,-0.5068,-0.5001,-0.4969,-0.4958,-0.4934,-0.4865,-0.4852,-0.4901,-0.4798,-0.4784,-0.4737,-0.4732,-0.4725,-0.4721,-0.4612,-0.4611,-0.4611,-0.4656,0,0,0,0,0,0,-0.5189,-0.517,-0.5158,-0.5087,-0.5065,-0.4993,-0.4969,-0.4956,-0.4926,-0.4921,-0.485,-0.4839,-0.4797,-0.4745,-0.4732,-0.4725,-0.4717,-0.4612,-0.4612,-0.4611,-0.4655,-0.4657,-0.466,0,0,0,0,0,-0.5196,-0.5175,-0.5158,-0.5142,-0.5049,-0.4992,-0.498,-0.4933,-0.4926,-0.4913,-0.4869,-0.4841,-0.4735,-0.4741,-0.4726,-0.4717,-0.4612,-0.4612,-0.4611,-0.4654,-0.4657,-0.466,0,0,0,0,0,0,-0.5246,-0.5165,-0.5145,-0.51,-0.5054,-0.4982,-0.4965,-0.4938,-0.4893,-0.489,-0.4834,-0.4818,-0.4777,-0.4742,-0.475,-0.4684,-0.4671,-0.4667,-0.4708,-0.471,-0.4713,-0.4722,-0.4713,0,0,0,0,0,-0.5253,-0.5214,-0.5145,-0.5112,-0.509,-0.5032,-0.5006,-0.4974,-0.4923,-0.4903,-0.4855,-0.4807,-0.4763,-0.4735,-0.469,-0.465,-0.4634,-0.4636,-0.4639,-0.4641,-0.4639,-0.4616,-0.4616,-0.461,-0.461,-0.461,0,0,-0.5265,-0.5215,-0.5194,-0.5122,-0.5082,-0.5043,-0.5016,-0.4976,-0.4946,-0.4897,-0.4849,-0.4813,-0.4756,-0.4712,-0.469,-0.4682,-0.4637,-0.4641,-0.4644,-0.464,-0.4615,-0.4616,-0.4617,-0.461,-0.461,-0.461,0,0,-0.5267,-0.5226,-0.5195,-0.5156,-0.5097,-0.5058,-0.5051,-0.4984,-0.4958,-0.491,-0.4872,-0.4836,-0.4761,-0.4722,-0.4692,-0.4682,-0.4654,-0.4669,-0.4681,-0.4659,-0.466,-0.466,-0.4656,-0.4655,-0.4667,-0.4667,-0.4667,0,-0.529,-0.523,-0.5182,-0.5144,-0.5114,-0.5068,-0.5036,-0.5001,-0.493,-0.491,-0.4902,-0.4807,-0.4765,-0.4712,-0.471,-0.4687,-0.4677,-0.4676,-0.4664,-0.4663,-0.4663,-0.4658,-0.4657,-0.4669,-0.4669,-0.4669,-0.4668,0,-0.5261,-0.522,-0.5202,-0.5136,-0.5103,-0.5068,-0.5015,-0.4988,-0.496,-0.4922,-0.4874,-0.4823,-0.4767,-0.4752,-0.4724,-0.4695,-0.4692,-0.4675,-0.466,-0.4666,-0.4661,-0.4659,-0.4672,-0.4671,-0.4671,-0.467,0,0,-0.529,-0.5199,-0.5193,-0.5163,-0.5094,-0.5062,-0.5026,-0.4973,-0.495,-0.4903,-0.4872,-0.481,-0.4794,-0.476,-0.4727,-0.4708,-0.4703,-0.4693,-0.4691,-0.4696,-0.4669,-0.4682,-0.4681,-0.4685,-0.4685,-0.4684,-0.4674,0,-0.5283,-0.5216,-0.5172,-0.5123,-0.5085,-0.5042,-0.5011,-0.4966,-0.493,-0.4893,-0.4853,-0.4811,-0.4793,-0.4772,-0.4751,-0.4708,-0.4697,-0.4709,-0.4655,-0.4653,-0.467,-0.4678,-0.4692,-0.4684,-0.4671,-0.4671,-0.4671,0,-0.5265,-0.522,-0.5167,-0.5104,-0.5086,-0.5059,-0.5007,-0.4972,-0.492,-0.4896,-0.4859,-0.4826,-0.4786,-0.4776,-0.4721,-0.473,-0.4705,-0.4681,-0.468,-0.4672,-0.4662,-0.4671,-0.468,-0.4679,-0.4667,-0.4668,-0.4668,0,-0.5291,-0.5218,-0.5177,-0.5152,-0.5078,-0.5059,-0.5028,-0.4976,-0.4947,-0.4902,-0.4882,-0.4833,-0.4806,-0.4768,-0.4723,-0.472,-0.4672,-0.4658,-0.465,-0.4651,-0.4641,-0.4642,-0.4646,-0.4627,-0.4627,-0.4627,-0.4627,0,-0.5287,-0.5256,-0.5188,-0.5162,-0.5127,-0.5078,-0.5044,-0.5008,-0.4963,-0.493,-0.489,-0.486,-0.4802,-0.4765,-0.4729,-0.4689,-0.4677,-0.4656,-0.4646,-0.4659,-0.4661,-0.4641,-0.464,-0.4626,-0.4626,-0.4626,-0.4626,0,-0.5311,-0.5263,-0.5216,-0.515,-0.5133,-0.5109,-0.5053,-0.5027,-0.499,-0.4949,-0.4936,-0.4878,-0.4832,-0.4784,-0.4721,-0.4697,-0.4658,-0.4645,-0.4676,-0.4671,-0.4665,-0.4667,-0.4656,-0.4652,-0.4636,-0.4637,-0.4637,0,-0.5311,-0.5286,-0.5218,-0.5193,-0.5163,-0.5123,-0.5094,-0.5045,-0.5016,-0.4956,-0.4937,-0.4889,-0.4847,-0.4777,-0.4729,-0.4681,-0.4666,-0.4666,-0.4659,-0.4672,-0.4666,-0.4668,-0.4665,-0.4668,-0.4669,-0.4669,-0.4669,0,-0.5316,-0.5294,-0.5253,-0.5205,-0.5171,-0.513,-0.5088,-0.507,-0.5013,-0.4982,-0.4936,-0.4904,-0.4841,-0.4793,-0.474,-0.4707,-0.4678,-0.4672,-0.4668,-0.468,-0.4699,-0.4688,-0.4682,-0.4672,-0.4672,-0.4672,-0.4672,-0.4671,-0.5327,-0.5304,-0.5252,-0.5208,-0.5172,-0.5133,-0.5106,-0.5066,-0.5027,-0.4972,-0.4945,-0.4899,-0.4849,-0.4775,-0.4742,-0.4705,-0.4697,-0.469,-0.4688,-0.4688,-0.4691,-0.4705,-0.4695,-0.4695,-0.4695,-0.4695,-0.4695,0,-0.533,-0.5295,-0.5256,-0.5198,-0.5164,-0.5141,-0.5094,-0.5067,-0.5026,-0.4982,-0.4943,-0.489,-0.4844,-0.4793,-0.4744,-0.4724,-0.471,-0.4713,-0.4713,-0.4706,-0.4701,-0.471,-0.4725,-0.4725,-0.4725,-0.4725,-0.4725,-0.4725,-0.5327,-0.5287,-0.5259,-0.52,-0.5165,-0.512,-0.5094,-0.5059,-0.5024,-0.4966,-0.4928,-0.4896,-0.4849,-0.4797,-0.4754,-0.474,-0.4723,-0.473,-0.4713,-0.4709,-0.4706,-0.4704,-0.4712,-0.4727,-0.4727,-0.472,-0.472,-0.472]},{"header":{"parameterUnit":"m.s-1","parameterCategory":1,"la1":30.2991,"la2":30.254,"lo1":-89.0895,"lo2":-89.0444,"dy":0.0017,"dx":0.0017,"nx":28,"ny":28,"refTime":"2024-06-07T03:00:00:Z","depth":0,"parameterNumber":3,"parameterNumberName":"V-component_of_WINDS"},"data":[0,0,0,0,0,0,0,0,0,0,0,0,0,0,0,0,0,0,0,0,0,0,0,0,0,0,0,0,0,0,0,0,0,0,0,0,0,0,0,0,0,0,0,0,0,0,0,0,0,0,0,0,0,0,0,0,0,0,4.0031,4.003,0,3.9962,3.9962,3.9961,3.989,3.9889,3.9888,3.9887,3.9814,3.9813,3.9812,0,0,0,0,0,0,0,0,0,0,0,0,0,4.0096,4.0095,4.0031,4.003,4.0029,3.9963,3.9962,3.9961,3.989,3.9889,3.9887,3.9886,3.9814,3.9813,3.9812,0,0,0,0,0,0,0,0,0,0,0,0,0,4.0052,4.0095,4.0031,3.9986,3.9981,3.9963,3.9962,3.996,3.989,3.9889,3.9887,3.9886,3.9815,3.9813,3.9812,3.9831,0,0,3.9807,3.9806,0,0,0,0,0,0,0,0,4.0054,4.0049,3.9993,3.9989,3.9983,3.9933,3.9958,3.9917,3.989,3.9925,3.9887,3.9885,3.9855,3.985,3.984,3.9828,3.9825,3.9807,3.9806,3.9805,3.9805,0,0,0,0,0,0,0,4.0057,4.0052,4.0003,3.9992,3.9986,3.9968,3.996,3.995,3.9898,3.9921,3.9916,3.9909,3.9852,3.9842,3.9838,3.9824,3.9807,3.9805,3.9804,3.9804,3.9824,3.9825,0,0,0,0,0,0,4.0068,4.0055,4.0006,4.0001,4.0016,3.9968,3.9959,3.9951,3.9898,3.9889,3.9911,3.9906,3.9845,3.984,3.9835,3.9855,3.9805,3.9804,3.9803,3.9822,3.9824,3.9826,0,0,0,0,0,0,4.0069,4.0064,4.0008,4.0027,4.0018,3.9968,3.996,3.995,3.994,3.989,3.988,3.991,3.9844,3.9837,3.9833,3.9851,3.9803,3.9802,3.9821,3.9823,3.9825,3.9895,0,0,0,0,0,0,4.0072,4.0065,4.0073,4.0027,4.0018,4.0009,3.9961,3.995,3.9938,3.9932,3.9887,3.9878,3.9842,3.9836,3.9831,3.9848,3.98,3.9819,3.9822,3.9824,3.9891,3.9899,3.9906,0,0,0,0,0,4.0074,4.0095,4.0074,4.0068,4.0027,4.001,4.0004,3.9963,3.994,3.9947,3.9915,3.988,3.985,3.9836,3.983,3.9847,3.9818,3.9821,3.9824,3.9887,3.9897,3.9906,0,0,0,0,0,0,4.0143,4.0088,4.0064,4.0071,4.0046,3.9998,4.0006,3.9975,3.9956,3.995,3.9899,3.9889,3.9891,3.9868,3.9854,3.9863,3.9829,3.9831,3.9878,3.9888,3.9895,3.9901,3.9799,0,0,0,0,0,4.0159,4.0152,4.0103,4.0114,4.0103,4.0057,4.0048,4.0018,3.999,3.9979,3.9946,3.9919,3.9903,3.9894,3.9877,3.9886,3.9875,3.9895,3.9903,3.991,3.9913,3.9916,3.9924,3.9837,3.9837,3.9836,0,0,4.0192,4.0161,4.016,4.0127,4.0104,4.0097,4.0048,4.0042,4.0036,3.9977,3.9972,3.9947,3.9913,3.9916,3.9916,3.9897,3.9934,3.9914,3.992,3.9919,3.992,3.9928,3.9936,3.9839,3.9838,3.9838,0,0,4.0249,4.0225,4.0231,4.0209,4.0175,4.0144,4.0146,4.0103,4.0084,4.0078,4.0034,4.0025,3.9999,3.9976,3.9962,4.0009,3.9976,4.0004,4.0046,4.005,4.0056,4.0062,4.0079,4.0086,4.0007,4.0007,4.0008,0,4.0294,4.0282,4.0238,4.0235,4.0221,4.0169,4.0174,4.0154,4.0116,4.0108,4.0088,4.0054,4.0027,4.0024,4.0036,4.0026,4.0025,4.001,4.0059,4.0065,4.0069,4.0085,4.0092,4.0011,4.0011,4.001,4.001,0,4.0339,4.0332,4.034,4.0306,4.0293,4.0295,4.025,4.0242,4.0213,4.0184,4.0178,4.0144,4.0119,4.0115,4.0086,4.0108,4.0098,4.0069,4.0033,4.0082,4.0096,4.0102,4.0017,4.0015,4.0014,4.0013,0,0,4.0439,4.038,4.0384,4.0368,4.0326,4.0318,4.0316,4.0293,4.0287,4.0262,4.0259,4.0238,4.0211,4.0194,4.0162,4.0165,4.0205,4.0136,4.0134,4.0151,4.0227,4.025,4.0257,4.0183,4.0183,4.0184,4.023,0,4.0489,4.0484,4.0444,4.045,4.0442,4.0391,4.0389,4.0362,4.0335,4.0323,4.0291,4.0278,4.0243,4.0233,4.0233,4.02,4.022,4.0196,4.0179,4.0179,4.019,4.0264,4.0288,4.0333,4.0235,4.0236,4.0236,0,4.0547,4.0527,4.0533,4.0491,4.0486,4.0485,4.046,4.0449,4.0417,4.0397,4.0378,4.0342,4.0336,4.0302,4.0292,4.0277,4.0267,4.025,4.025,4.0248,4.0211,4.0265,4.0346,4.0354,4.0244,4.0244,4.0243,0,4.062,4.0594,4.0594,4.0581,4.0532,4.0533,4.0512,4.0479,4.0467,4.0444,4.0436,4.0413,4.04,4.0382,4.034,4.0319,4.0335,4.0298,4.0318,4.0319,4.0324,4.0325,4.0407,4.0317,4.0316,4.0316,4.0316,0,4.0681,4.0687,4.0626,4.0627,4.0631,4.0583,4.0588,4.0562,4.0533,4.0527,4.048,4.0475,4.0419,4.0407,4.0374,4.0371,4.0365,4.0348,4.0339,4.0353,4.0355,4.0346,4.0342,4.0318,4.0318,4.0317,4.0317,0,4.0764,4.0724,4.0721,4.0674,4.0663,4.0668,4.0627,4.0625,4.0594,4.0586,4.0581,4.0533,4.0516,4.0472,4.0443,4.042,4.0427,4.041,4.0438,4.0433,4.0456,4.0455,4.0536,4.0544,4.0448,4.0449,4.045,0,4.0807,4.081,4.0764,4.0757,4.0738,4.0727,4.0715,4.0667,4.0656,4.062,4.0622,4.0601,4.0583,4.0558,4.0519,4.0496,4.0479,4.0509,4.0476,4.0489,4.048,4.0481,4.0481,4.0517,4.0518,4.0519,4.052,0,4.0886,4.0866,4.0851,4.0829,4.0816,4.0796,4.0773,4.0769,4.0715,4.0705,4.0688,4.0674,4.0644,4.0625,4.0596,4.0573,4.0538,4.0531,4.0534,4.0549,4.0566,4.0558,4.0459,4.0529,4.0529,4.0528,4.0527,4.0527,4.0951,4.0951,4.0919,4.0903,4.0881,4.0861,4.0856,4.0825,4.081,4.0784,4.0756,4.0741,4.0708,4.0666,4.0645,4.0633,4.0614,4.0619,4.0621,4.0623,4.063,4.0567,4.0627,4.0627,4.0626,4.0626,4.0626,0,4.1029,4.1005,4.0991,4.0961,4.0949,4.0917,4.0889,4.0881,4.087,4.0842,4.0825,4.0804,4.0784,4.0744,4.072,4.0717,4.0701,4.0713,4.0713,4.0708,4.0647,4.0647,4.0727,4.0727,4.0727,4.0727,4.0727,4.0727,4.1068,4.1067,4.1043,4.103,4.1006,4.0992,4.098,4.096,4.0938,4.0918,4.0902,4.0875,4.0842,4.0815,4.0795,4.0784,4.0777,4.0795,4.0779,4.0722,4.0713,4.0704,4.0703,4.0794,4.0794,4.0841,4.0842,4.0842]}]]